Theta_e
312 310 310 310 311 309 309 310 313 309 309 311 311 309 308 308 310 311 310 310 312 314 316 314 317 319 316 307 307 318 322 323 322 320 316 314 314 314 309 311 312 308 310 308 309 309 310
310 310 309 310 310 309 310 310 311 310 310 310 311 309 309 307 310 311 310 310 310 313 315 314 316 317 310 300 316 321 319 319 319 318 315 317 315 316 312 311 309 312 311 308 308 309 310
310 310 311 312 312 312 312 311 310 311 311 310 311 310 309 308 310 310 310 310 310 312 314 313 315 314 306 303 317 321 319 317 318 318 313 316 318 315 315 309 310 309 306 308 309 309 309
312 312 313 313 314 314 313 313 313 311 313 312 311 310 310 309 310 310 310 310 310 312 314 313 315 312 299 314 320 317 318 315 318 320 317 318 319 314 311 311 306 302 305 301 309 307 310
314 314 314 314 314 314 314 313 313 313 313 312 311 311 310 309 309 310 310 310 310 313 313 314 310 307 296 315 310 316 317 312 314 317 318 317 315 311 308 306 300 300 296 298 303 304 307
313 313 313 314 314 314 313 314 313 314 312 312 312 311 310 309 309 310 309 309 311 311 311 312 310 300 300 301 310 313 316 315 311 312 310 310 308 305 305 304 293 295 296 299 299 302 302
313 312 312 313 313 313 314 313 313 313 312 311 311 310 310 310 309 309 308 307 300 298 303 295 295 297 301 306 311 309 313 311 309 308 302 306 301 297 301 305 302 302 300 298 300 301 301
310 311 313 313 313 313 313 313 313 313 312 311 310 310 310 310 310 309 307 299 297 299 291 299 301 301 304 306 299 304 312 304 302 298 303 300 296 301 304 304 302 300 299 298 298 301 299
311 313 312 313 313 313 313 313 312 312 312 311 310 310 310 310 309 306 301 300 306 305 293 294 299 299 300 304 298 299 307 303 299 297 298 296 298 303 301 300 300 300 298 298 298 298 300
312 312 312 312 311 312 313 313 313 312 312 311 310 310 310 310 302 302 299 304 308 304 286 287 291 296 301 302 295 303 307 303 299 294 297 296 301 300 299 297 300 295 302 301 297 296 292
312 311 311 312 312 313 313 313 312 312 311 311 311 310 310 306 302 297 301 306 307 299 272 286 292 303 301 296 298 299 307 303 295 295 296 292 296 296 296 298 302 297 302 300 299 295 293
310 310 311 311 312 312 312 312 312 311 311 310 310 310 308 305 305 303 307 306 301 283 271 284 292 291 292 294 295 300 300 304 301 296 297 294 299 299 299 302 303 301 297 296 295 294 287
310 311 311 312 311 312 311 310 310 310 310 311 310 308 305 304 299 306 305 299 283 276 282 283 286 289 288 288 290 294 293 292 290 286 287 293 295 297 301 297 300 300 295 285 285 284 285
311 311 311 311 311 311 311 310 309 310 310 308 306 304 301 302 306 304 303 289 274 274 278 286 287 287 285 288 289 291 291 288 292 292 288 286 283 294 300 297 294 294 293 288 282 283 286
310 310 310 310 310 310 310 310 311 310 308 306 303 299 299 299 304 304 293 280 279 278 282 282 285 283 284 288 288 289 288 288 292 292 287 287 286 294 296 298 298 294 289 292 285 281 285
309 309 310 310 310 310 310 310 310 309 307 303 299 296 295 297 303 297 286 282 281 286 286 285 281 283 281 284 284 286 286 290 290 295 294 290 285 290 293 297 296 295 296 286 288 281 281
309 310 310 310 310 311 310 309 308 308 306 300 297 293 295 296 296 289 283 282 284 289 289 286 283 282 283 283 286 284 286 289 293 292 295 292 289 287 290 290 288 290 289 288 290 287 283
310 310 310 310 310 310 310 308 308 307 304 298 293 286 294 295 287 279 281 282 287 287 288 287 287 285 284 285 284 286 286 287 294 295 289 292 289 284 286 290 292 291 291 290 288 283 283
310 310 309 309 310 310 310 309 306 307 303 295 291 290 293 294 283 280 282 284 285 284 284 285 285 287 287 284 283 286 287 291 293 293 290 291 287 282 282 287 289 288 290 291 288 287 281
310 310 309 309 310 310 309 306 306 307 301 294 290 285 287 287 284 283 280 281 282 287 284 285 284 286 286 284 286 285 286 290 293 294 295 294 286 284 283 284 289 286 287 289 289 284 285
310 310 309 310 310 309 308 306 306 305 299 294 286 282 280 283 283 281 282 281 280 280 284 285 283 282 282 281 283 284 286 288 291 294 293 291 284 284 285 286 288 289 288 287 288 290 286
310 310 310 310 309 308 307 307 306 305 298 291 286 283 281 279 280 282 279 279 279 279 281 282 281 283 284 282 283 281 286 287 287 290 290 290 284 284 281 285 287 286 287 290 290 289 288
310 310 310 309 308 308 308 308 307 305 298 290 286 286 290 280 280 281 281 280 281 283 283 284 284 283 282 282 285 285 287 289 289 288 288 288 284 282 281 283 285 281 286 287 289 290 291
310 309 309 308 307 307 306 306 307 306 298 293 290 289 287 282 281 282 281 282 281 281 281 283 284 284 285 288 287 286 284 286 286 285 290 285 284 284 280 280 277 285 285 292 290 291 293
309 309 308 307 306 305 305 305 304 306 298 294 290 288 287 281 281 281 282 281 281 282 282 282 284 285 286 284 279 278 279 283 280 282 283 286 286 280 280 280 282 284 283 286 287 288 293
309 308 307 306 306 305 305 305 305 304 298 292 289 288 289 284 282 283 282 281 281 280 280 282 285 286 284 280 277 274 274 272 278 280 284 285 286 285 277 279 277 285 284 287 290 283 290
308 307 307 306 305 305 304 304 304 302 299 293 289 288 288 283 283 281 283 282 281 279 280 278 281 282 282 278 274 274 273 269 276 278 278 281 282 281 279 281 283 285 285 287 282 285 286
308 307 306 305 305 304 303 303 303 302 298 294 288 288 288 283 282 284 282 281 280 281 281 279 280 280 279 276 275 273 274 272 272 276 278 281 280 280 277 278 279 283 284 285 287 286 285
307 306 305 305 304 304 303 303 303 301 298 293 288 289 289 285 283 287 286 287 285 281 282 280 279 277 281 275 273 272 272 271 270 275 277 276 283 283 282 284 284 284 286 288 286 286 286
Wind_Speed
10 11 11 10 11 11 13 12 12 8 9 7 8 6 4 7 5 5 6 5 6 8 9 8 9 10 3 3 1 4 5 5 3 3 5 6 5 8 16 7 8 13 11 6 4 2 1
12 11 10 11 12 11 12 13 11 9 7 7 5 3 6 7 6 7 5 6 5 7 7 8 8 8 3 4 1 3 5 3 2 2 2 4 3 1 3 4 12 10 16 9 5 3 0
11 11 12 13 14 12 14 13 13 13 9 7 7 4 6 6 7 7 6 5 6 6 7 6 7 3 2 1 3 4 2 1 2 0 2 1 1 2 7 5 1 2 13 9 9 5 4
13 16 17 17 17 17 17 17 14 13 10 7 6 4 6 4 7 7 7 5 6 6 7 5 6 3 4 1 3 2 1 1 1 2 1 2 1 5 1 6 4 3 6 16 11 7 6
18 17 15 15 15 15 14 13 16 14 10 8 7 5 5 5 6 7 7 4 6 7 5 4 2 3 3 3 1 1 2 1 2 1 3 2 2 3 3 7 4 3 4 16 19 7 4
15 17 17 17 16 15 16 14 14 13 12 9 9 7 6 4 4 5 3 4 3 4 1 2 0 3 3 2 0 0 1 0 1 4 4 3 2 4 4 8 7 5 4 11 21 10 6
16 16 18 18 17 16 14 15 13 11 13 10 9 6 7 4 5 4 1 1 3 3 3 2 2 2 2 2 1 1 0 1 1 2 6 3 3 6 9 13 2 6 7 3 0 2 5
16 17 17 17 16 14 12 11 10 12 14 11 10 7 7 5 7 4 2 2 1 3 3 4 2 4 3 2 2 1 3 7 5 6 4 2 5 2 5 5 4 1 5 7 3 4 6
15 15 14 13 9 5 5 7 11 10 9 12 9 7 6 8 8 3 2 2 3 1 2 1 3 3 1 3 2 4 9 5 4 8 7 9 0 9 3 5 7 5 6 4 4 3 1
12 11 9 6 3 3 6 10 11 10 13 11 9 7 9 12 4 3 3 1 0 1 1 3 2 2 4 3 4 0 5 5 4 12 7 8 8 6 8 11 5 3 4 5 9 6 5
8 6 4 5 7 8 11 12 12 13 13 10 8 11 11 4 6 3 2 1 3 2 3 2 3 2 2 4 4 2 1 7 10 9 7 6 6 9 8 10 11 2 4 5 5 6 1
3 3 5 8 10 10 13 14 15 14 10 8 10 11 13 4 1 1 2 2 1 3 4 1 3 3 7 6 1 5 3 3 2 4 3 5 1 5 8 5 13 12 8 6 4 2 6
3 6 8 11 12 13 14 14 14 12 10 10 14 12 4 2 1 2 1 1 2 4 2 3 1 4 8 7 5 3 7 9 4 5 6 6 4 2 1 8 6 5 9 3 3 4 5
8 10 12 14 13 13 13 13 13 13 15 15 14 9 5 3 4 2 0 2 3 1 4 2 1 2 7 5 4 5 7 8 5 6 4 8 5 10 6 4 6 10 5 4 6 5 4
9 10 11 12 12 12 13 11 11 13 14 14 10 3 3 5 6 2 3 4 3 4 3 3 3 4 5 3 1 4 5 4 6 6 4 5 3 0 3 1 2 7 6 2 5 2 2
9 10 11 11 10 11 11 12 12 12 10 3 3 3 3 7 4 3 1 0 2 3 2 1 4 2 8 8 7 6 8 3 7 10 1 3 4 2 3 1 3 4 13 3 2 6 6
11 11 11 11 10 12 13 13 11 9 7 3 3 2 2 4 2 2 0 1 2 4 4 4 3 3 3 5 6 4 5 1 5 8 8 3 2 4 1 5 6 5 5 3 2 2 3
12 11 11 12 12 12 13 12 9 9 9 5 2 2 3 1 1 1 1 2 3 2 3 1 2 2 3 3 6 5 7 2 5 10 9 3 1 3 3 1 2 1 2 4 6 5 2
13 12 12 12 12 11 10 8 6 8 5 3 2 2 2 1 3 2 1 2 2 0 1 1 1 1 2 2 4 4 5 2 3 5 9 8 4 4 3 1 1 3 2 4 2 1 6
13 14 13 13 14 12 10 6 5 7 8 4 2 2 2 3 2 3 4 3 3 3 2 2 1 2 3 4 1 2 6 3 1 5 5 4 2 3 1 4 5 5 5 6 3 3 4
15 14 15 15 15 14 11 8 7 8 6 3 3 1 2 2 2 3 2 3 1 3 1 1 2 1 4 3 3 4 2 4 1 4 7 5 4 2 1 1 2 4 9 10 7 6 8
16 16 16 16 15 13 11 9 8 9 7 3 3 4 2 3 2 3 1 3 3 2 2 1 1 4 5 2 2 4 2 4 3 3 4 4 4 2 0 1 3 3 6 14 14 8 7
18 17 17 16 13 11 10 9 9 11 5 2 2 1 1 1 1 1 1 3 1 3 2 2 2 1 6 4 5 5 3 2 1 3 3 5 6 4 4 1 3 5 17 16 12 12 12
19 18 17 15 13 11 10 10 11 14 6 2 3 3 2 3 3 2 4 2 2 2 0 1 2 1 1 2 2 4 6 7 9 8 4 5 4 1 3 2 6 2 3 11 16 10 17
19 18 16 15 14 12 11 11 12 13 11 3 2 2 3 3 0 3 5 4 2 2 1 0 1 2 2 3 1 3 3 2 5 5 5 2 3 4 4 6 5 2 6 8 12 10 15
19 18 16 15 14 13 12 11 13 15 13 5 2 1 1 6 5 1 4 3 3 2 0 1 1 1 2 1 1 2 2 1 2 1 3 3 3 1 3 4 6 1 2 2 4 8 3
20 19 17 16 15 14 13 13 15 17 13 5 3 2 0 4 2 2 2 3 5 3 1 2 2 1 2 1 2 2 3 2 4 5 4 3 2 3 3 4 6 2 4 3 6 1 4
22 20 19 17 15 15 15 14 16 16 14 4 4 2 1 4 2 2 2 3 3 2 1 2 3 1 1 2 1 1 2 4 2 2 4 5 7 4 3 4 9 6 4 7 2 2 2
23 21 20 18 16 16 16 14 15 17 12 4 4 2 1 6 4 2 3 3 2 2 4 1 2 2 1 3 1 2 2 1 1 3 2 4 4 3 8 4 1 5 3 0 1 4 2
Wind_Direction
292 282 290 294 292 295 296 287 286 270 287 302 247 247 255 288 290 289 310 335 341 342 333 333 341 340 312 208 257 317 344 301 254 199 175 160 183 190 207 184 208 222 208 208 159 161 283
297 300 297 282 274 273 286 279 276 281 269 273 248 263 244 265 269 280 291 326 333 328 329 327 334 330 283 206 359 302 336 290 346 215 162 162 178 336 123 114 205 216 219 205 186 173 217
288 280 270 270 269 261 250 254 260 264 248 250 252 266 230 256 257 269 270 311 324 318 321 320 325 316 262 212 348 316 21 310 291 179 161 164 80 197 134 138 49 222 211 198 208 207 238
283 278 277 277 278 273 264 256 245 247 245 219 234 254 221 255 264 257 258 294 317 307 304 309 318 252 243 23 324 277 359 248 333 40 77 80 183 93 74 122 75 155 205 219 195 200 212
288 293 289 285 278 271 265 253 249 243 240 216 220 224 215 237 268 248 254 296 305 296 284 311 245 247 221 337 217 95 320 250 120 31 92 114 225 123 164 170 107 162 221 212 214 191 222
304 298 295 293 288 281 275 263 243 232 231 198 186 200 223 241 263 229 238 287 296 314 188 155 81 223 226 162 178 37 301 301 133 134 127 166 102 161 193 195 195 164 191 204 207 182 217
309 306 297 289 283 276 267 261 238 223 216 190 168 193 211 217 187 197 205 247 190 181 227 258 208 286 55 118 258 153 11 156 114 186 174 173 193 199 186 199 73 170 154 142 199 90 212
315 307 309 304 292 279 259 251 225 205 209 170 161 178 189 178 170 136 133 248 14 18 224 240 291 263 277 295 149 211 183 190 194 177 154 153 209 153 132 156 148 134 153 164 136 153 222
316 316 321 317 315 268 222 202 183 181 176 159 152 170 176 156 150 148 193 243 43 223 255 179 245 253 209 213 193 171 184 177 204 176 197 216 221 190 156 105 206 196 192 182 105 114 36
319 329 335 349 41 129 151 153 151 149 140 138 154 169 149 137 142 169 222 49 330 287 34 181 210 236 209 211 201 86 204 196 198 204 184 224 226 175 199 206 191 222 221 153 138 163 232
332 343 15 71 92 107 121 130 128 125 122 135 146 140 145 150 130 201 21 348 132 234 239 109 180 352 169 205 121 146 343 189 195 175 186 172 191 191 212 213 190 151 153 148 175 152 80
349 53 85 101 110 116 118 116 114 115 123 138 136 137 124 110 164 52 4 97 217 198 249 205 169 194 180 205 140 137 149 104 333 174 181 178 20 216 206 177 192 142 99 61 53 138 233
107 109 110 110 117 116 110 114 115 118 128 130 118 114 81 77 127 1 136 169 194 218 24 166 177 176 199 184 213 229 166 184 173 150 162 174 151 140 255 172 152 155 135 137 189 228 234
119 115 113 113 119 115 115 119 122 129 129 122 107 96 62 48 316 300 233 108 261 62 247 345 254 291 203 176 215 208 173 192 201 191 130 180 179 186 150 248 180 181 204 207 211 191 149
131 126 122 121 127 126 125 129 135 133 130 127 114 55 64 3 334 16 49 195 241 192 186 200 164 155 208 174 221 185 209 216 192 197 207 163 149 112 66 4 197 161 206 356 98 25 185
150 141 134 131 135 132 132 130 130 133 145 147 82 94 55 334 319 43 162 124 224 208 151 184 229 246 189 171 191 199 173 175 178 191 216 132 141 18 85 10 33 248 141 131 172 185 221
160 153 145 142 140 136 136 134 138 144 145 138 66 87 45 357 13 82 237 92 246 223 203 216 175 217 244 205 182 203 178 148 190 151 160 149 301 123 142 197 179 146 184 63 107 242 244
171 164 157 151 148 147 142 138 137 146 136 64 114 85 24 312 330 31 138 251 321 48 26 240 271 234 247 200 176 195 199 256 216 159 164 114 74 174 198 20 5 25 207 189 222 184 259
178 173 166 160 159 160 155 143 147 172 164 133 93 102 69 118 256 175 239 236 259 179 101 323 238 246 184 258 223 169 181 117 252 138 163 157 183 143 129 204 32 207 195 185 187 64 193
184 180 175 169 167 161 155 148 125 145 139 89 143 133 21 64 4 158 169 200 221 198 149 150 307 269 227 215 227 178 159 162 224 203 132 141 132 265 237 86 123 181 165 192 164 201 185
187 186 179 173 169 162 158 152 131 145 134 103 15 114 328 148 194 144 156 128 204 207 331 10 174 7 254 194 164 190 132 144 199 181 152 169 150 139 55 98 146 166 167 185 208 225 217
183 181 173 171 167 164 169 172 159 149 124 89 151 152 169 111 259 202 35 173 201 204 257 145 84 359 181 220 323 194 175 179 193 181 146 190 136 132 170 255 208 213 216 205 210 220 251
176 177 172 169 164 172 185 188 178 158 123 116 127 63 189 122 190 224 176 146 213 167 81 8 91 43 70 34 20 6 324 27 42 145 131 146 141 162 186 335 127 283 220 206 205 208 203
175 177 175 174 177 186 197 199 192 175 154 129 170 148 138 143 237 209 155 130 145 279 210 126 154 305 115 311 287 337 23 46 59 33 27 143 126 130 128 173 222 98 330 216 221 237 223
176 178 178 178 179 186 196 197 191 180 147 112 140 160 149 120 157 185 147 116 119 342 84 351 115 110 204 210 199 5 360 143 21 26 14 345 165 115 183 217 316 200 182 181 192 255 219
178 178 176 176 175 179 187 184 169 159 143 102 113 74 196 124 208 168 143 155 146 147 275 237 128 313 219 94 127 171 171 348 156 109 16 93 63 140 170 202 217 14 152 173 170 273 323
175 175 172 172 172 168 172 176 158 155 150 120 99 43 257 107 133 257 166 155 130 119 153 288 300 212 341 141 106 166 146 347 172 163 157 116 77 200 176 239 282 210 161 199 176 313 335
172 171 170 169 168 159 162 163 160 156 152 115 102 53 15 96 118 297 338 141 129 154 165 156 179 166 71 65 221 157 182 184 195 192 189 177 163 175 130 206 248 160 140 201 35 302 292
171 170 169 167 165 158 154 154 165 158 165 126 106 117 85 72 96 9 15 39 41 124 128 55 44 146 145 104 176 112 176 179 17 209 198 210 216 187 210 216 73 204 252 215 178 273 226